Houston, TX

4:12 PM CDT on October 14, 2019 (GMT -0500)
Houston

Weather History for KTME - September, 2019

Change the Weather History Date:

Thursday, September 19, 2019

  Actual Average (WUND) Record (WUND)
Temperature  
Mean Temperature 78 °F -  
Max Temperature 82 °F - - (-1)
Min Temperature 75 °F - - (-1)
Cooling Degree Days 14    
Growing Degree Days 28 (Base 50)    
Moisture  
Dew Point 77 °F    
Average Humidity 95    
Maximum Humidity 100    
Minimum Humidity 89    
Precipitation  
Precipitation 0.00 in - - ()
Sea Level Pressure  
Sea Level Pressure 29.88 in    
Wind  
Wind Speed 7 mph (SSW)    
Max Wind Speed 20 mph    
Max Gust Speed 25 mph    
Visibility 7 miles    
Events Rain    
Averages and records for this station are not official NWS values.
T = Trace of Precipitation, MM = Missing Value Source: NWS Daily Summary

Daily Weather History Graph

Daily Weather History Graph

Search for Another Location

Airport or City:

Astronomy

Sep. 19, 2019 Rise Set
Actual Time 7:10 AM CDT 7:24 PM CDT
Civil Twilight 6:46 AM CDT 7:47 PM CDT
Nautical Twilight 6:18 AM CDT 8:15 PM CDT
Astronomical Twilight 5:50 AM CDT 8:43 PM CDT
Moon 10:56 PM CDT (9/19) 11:53 AM CDT (9/19)
Length of Visible Light 13h 01m
Length of Day
12h 13m
Waning Gibbous, 74% of the Moon is Illuminated
Sep 19
Waning Gibbous
Sep 21
Last Quarter
Sep 28
New
Oct 5
First Quarter
Oct 13
Full

Hourly Weather History & Observations

Time (CDT) Temp. Heat Index Dew Point Humidity Pressure Visibility Wind Dir Wind Speed Gust Speed Precip Events Conditions
12:35 AM 78.8 °F - 77.0 °F 94% 29.87 in 10.0 mi Calm Calm - N/A   Overcast
12:55 AM 78.8 °F - 77.0 °F 94% 29.87 in 10.0 mi Calm Calm - N/A   Overcast
1:15 AM 78.8 °F - 77.0 °F 94% 29.86 in 10.0 mi Calm Calm - N/A   Overcast
1:35 AM 78.8 °F - 77.0 °F 94% 29.87 in 9.0 mi Calm Calm - N/A   Overcast
1:55 AM 78.8 °F - 78.8 °F 100% 29.88 in 7.0 mi Calm Calm - N/A   Overcast
2:15 AM 78.8 °F - 78.8 °F 100% 29.87 in 4.0 mi WNW 3.5 mph - N/A Rain Light Rain
2:35 AM 78.8 °F - 78.8 °F 100% 29.86 in 7.0 mi WSW 9.2 mph - N/A   Overcast
2:55 AM 80.6 °F 88.1 °F 78.8 °F 94% 29.87 in 6.0 mi WSW 6.9 mph - N/A   Overcast
3:15 AM 80.6 °F 89.3 °F 80.6 °F 100% 29.86 in 7.0 mi WSW 9.2 mph - N/A   Overcast
3:35 AM 80.6 °F 89.3 °F 80.6 °F 100% 29.85 in 6.0 mi SW 10.4 mph - N/A   Overcast
3:55 AM 80.6 °F 89.3 °F 80.6 °F 100% 29.85 in 5.0 mi SW 9.2 mph - N/A   Overcast
4:15 AM 80.6 °F 89.3 °F 80.6 °F 100% 29.85 in 6.0 mi SW 10.4 mph - N/A   Overcast
4:35 AM 80.6 °F 89.3 °F 80.6 °F 100% 29.85 in 6.0 mi SW 11.5 mph - N/A   Overcast
4:55 AM 80.6 °F 89.3 °F 80.6 °F 100% 29.84 in 6.0 mi WSW 11.5 mph - N/A   Overcast
5:15 AM 80.6 °F 89.3 °F 80.6 °F 100% 29.84 in 6.0 mi SW 12.7 mph - N/A   Overcast
5:35 AM 80.6 °F 89.3 °F 80.6 °F 100% 29.84 in 6.0 mi SW 11.5 mph - N/A   Overcast
5:55 AM 80.6 °F 89.3 °F 80.6 °F 100% 29.84 in 6.0 mi SW 12.7 mph - N/A   Overcast
6:15 AM 80.6 °F 89.3 °F 80.6 °F 100% 29.85 in 6.0 mi SW 9.2 mph - N/A   Overcast
6:35 AM 82.4 °F 94.0 °F 80.6 °F 94% 29.86 in 6.0 mi SW 8.1 mph - N/A   Overcast
6:55 AM 80.6 °F 89.3 °F 80.6 °F 100% 29.86 in 6.0 mi WSW 9.2 mph - N/A   Overcast
7:15 AM 80.6 °F 89.3 °F 80.6 °F 100% 29.85 in 6.0 mi WSW 11.5 mph - N/A   Overcast
7:35 AM 80.6 °F 89.3 °F 80.6 °F 100% 29.85 in 6.0 mi SW 12.7 mph - N/A   Overcast
7:55 AM 80.6 °F 89.3 °F 80.6 °F 100% 29.86 in 5.0 mi WSW 10.4 mph - N/A   Overcast
8:15 AM 80.6 °F 89.3 °F 80.6 °F 100% 29.86 in 5.0 mi SW 11.5 mph 18.4 mph N/A   Overcast
8:55 AM 82.4 °F 94.0 °F 80.6 °F 94% 29.86 in 5.0 mi SW 13.8 mph 19.6 mph N/A   Overcast
9:15 AM 82.4 °F 94.0 °F 80.6 °F 94% 29.87 in 5.0 mi WSW 9.2 mph 18.4 mph N/A   Mostly Cloudy
9:35 AM 82.4 °F 94.0 °F 80.6 °F 94% 29.88 in 5.0 mi West 9.2 mph 15.0 mph N/A   Mostly Cloudy
9:55 AM 82.4 °F 92.4 °F 78.8 °F 89% 29.89 in 7.0 mi West 8.1 mph 15.0 mph N/A   Overcast
10:15 AM 82.4 °F 94.0 °F 80.6 °F 94% 29.89 in 5.0 mi West 9.2 mph - N/A Rain Light Rain
10:35 AM 80.6 °F 89.3 °F 80.6 °F 100% 29.91 in 4.0 mi NW 4.6 mph - N/A   Light Drizzle
10:55 AM 80.6 °F 89.3 °F 80.6 °F 100% 29.91 in 7.0 mi North 6.9 mph - N/A   Light Drizzle
11:15 AM 80.6 °F 88.1 °F 78.8 °F 94% 29.90 in 2.0 mi Variable 5.8 mph 20.7 mph N/A Rain Rain
11:35 AM 80.6 °F 88.1 °F 78.8 °F 94% 29.90 in 1.8 mi North 6.9 mph - N/A Rain Rain
11:55 AM 80.6 °F 89.3 °F 80.6 °F 100% 29.91 in 2.0 mi NW 5.8 mph 15.0 mph N/A Rain Rain
12:15 PM 75.2 °F - 75.2 °F 100% 29.92 in 1.8 mi WNW 19.6 mph 25.3 mph N/A Rain Rain
12:35 PM 75.2 °F - 75.2 °F 100% 29.92 in 2.0 mi West 10.4 mph 17.3 mph N/A Rain Heavy Rain
12:55 PM 75.2 °F - 73.4 °F 94% 29.93 in 3.0 mi South 13.8 mph - N/A Rain Rain
1:15 PM 75.2 °F - 73.4 °F 94% 29.93 in 4.0 mi SSE 11.5 mph 18.4 mph N/A   Light Drizzle
1:35 PM 75.2 °F - 73.4 °F 94% 29.91 in 4.0 mi SE 9.2 mph - N/A Rain Light Rain
1:55 PM 75.2 °F - 73.4 °F 94% 29.92 in 10.0 mi SE 8.1 mph 16.1 mph N/A   Overcast
2:15 PM 75.2 °F - 73.4 °F 94% 29.91 in 1.2 mi South 16.1 mph 23.0 mph N/A Rain Rain
2:35 PM 75.2 °F - 73.4 °F 94% 29.90 in 10.0 mi SSE 13.8 mph 20.7 mph N/A   Light Drizzle
2:55 PM 75.2 °F - 71.6 °F 89% 29.88 in 10.0 mi South 8.1 mph - N/A   Overcast
3:15 PM 77.0 °F - 73.4 °F 89% 29.88 in 10.0 mi South 10.4 mph - N/A   Overcast
3:35 PM 77.0 °F - 73.4 °F 89% 29.89 in 10.0 mi South 11.5 mph - N/A   Overcast
3:55 PM 77.0 °F - 75.2 °F 94% 29.88 in 10.0 mi SSE 10.4 mph - N/A   Overcast
4:15 PM 77.0 °F - 75.2 °F 94% 29.88 in 10.0 mi SSE 13.8 mph - N/A   Mostly Cloudy
4:35 PM 77.0 °F - 75.2 °F 94% 29.88 in 10.0 mi SSE 10.4 mph 16.1 mph N/A   Mostly Cloudy
4:55 PM 77.0 °F - 73.4 °F 89% 29.87 in 10.0 mi SSE 15.0 mph - N/A   Partly Cloudy
5:15 PM 77.0 °F - 73.4 °F 89% 29.88 in 10.0 mi SSE 10.4 mph 20.7 mph N/A   Scattered Clouds
5:35 PM 77.0 °F - 73.4 °F 89% 29.87 in 10.0 mi SSE 11.5 mph - N/A   Mostly Cloudy
5:55 PM 77.0 °F - 73.4 °F 89% 29.88 in 10.0 mi SSE 11.5 mph 17.3 mph N/A   Overcast
6:15 PM 77.0 °F - 73.4 °F 89% 29.89 in 10.0 mi SE 9.2 mph - N/A   Overcast
6:35 PM 77.0 °F - 73.4 °F 89% 29.90 in 10.0 mi SE 9.2 mph - N/A   Overcast
6:55 PM 75.2 °F - 73.4 °F 94% 29.90 in 10.0 mi SSE 9.2 mph - N/A   Overcast
7:15 PM 75.2 °F - 73.4 °F 94% 29.88 in 10.0 mi SSE 10.4 mph - N/A   Overcast
7:35 PM 75.2 °F - 73.4 °F 94% 29.88 in 10.0 mi SSE 11.5 mph - N/A   Overcast
7:55 PM 75.2 °F - 73.4 °F 94% 29.88 in 10.0 mi SSE 9.2 mph - N/A   Overcast
8:15 PM 77.0 °F - 73.4 °F 89% 29.89 in 10.0 mi SSE 8.1 mph - N/A   Overcast
8:35 PM 77.0 °F - 73.4 °F 89% 29.91 in 10.0 mi Calm Calm - N/A   Overcast
8:55 PM 77.0 °F - 73.4 °F 89% 29.91 in 10.0 mi ESE 5.8 mph - N/A   Overcast
9:15 PM 77.0 °F - 73.4 °F 89% 29.91 in 10.0 mi SE 9.2 mph - N/A   Overcast
9:35 PM 77.0 °F - 73.4 °F 89% 29.91 in 10.0 mi SE 8.1 mph - N/A   Overcast
9:55 PM 75.2 °F - 75.2 °F 100% 29.91 in 10.0 mi SE 8.1 mph - N/A   Overcast
10:15 PM 75.2 °F - 75.2 °F 100% 29.92 in 10.0 mi SSE 8.1 mph - N/A   Scattered Clouds
10:35 PM 77.0 °F - 75.2 °F 94% 29.92 in 10.0 mi SSE 9.2 mph - N/A   Clear
10:55 PM 77.0 °F - 77.0 °F 100% 29.92 in 10.0 mi SSE 10.4 mph - N/A   Clear
11:15 PM 78.8 °F - 77.0 °F 94% 29.93 in 10.0 mi SSE 9.2 mph - N/A   Clear
11:35 PM 78.8 °F - 77.0 °F 94% 29.93 in 10.0 mi SSE 9.2 mph - N/A   Clear
11:55 PM 78.8 °F - 77.0 °F 94% 29.93 in 10.0 mi SSE 8.1 mph - N/A   Clear